Tracking 20241 objects as of 27-Jan-2020
HD Live streaming from Space Station
objects crossing your sky now

COSMOS 2251 DEB

Track COSMOS 2251 DEB now!
10-day predictions


NORAD ID: 34001
Int'l Code: 1993-036GL
Perigee: 768.6 km
Apogee: 798.2 km
Inclination: 74.0 °
Period: 100.4 minutes
Semi major axis: 7154 km
RCS: 0.041 m2 (small)
Launch date: June 16, 1993
Source: Commonwealth of Independent States (former USSR) (CIS)
Launch site: PLESETSK MISSILE AND SPACE COMPLEX (PKMTR)

Note: This is SATELLITE DEBRIS
aabbcc
Your satellite tracking list
Your tracking list is empty




NASA's NSSDC Master Catalog

Two Line Element Set (TLE):
1 34001U 93036GL  20026.37808160  .00000037  00000-0  22241-4 0  9997
2 34001  74.0389 259.0450 0020712 151.1331  22.1845 14.34637866573378
Source of the keplerian elements: AFSPC